When you browse on this site, cookies collect data to enhance your experience and personalize the content and advertising you see.
Visit our Privacy Policy to learn more. By continuing to use the site, you agree to this use of cookies and data.
  • Em Portugal
  • Lista de países
  • Para 7 dias
  • Temperatura da água
  • Mapas de satélite
  • Mapa do tempo
  • Widgets de tempo
  • user-avatar
    Iniciar Sessão

    Previsão horária em El Guna

    Hoje, 24 Março, Domingo

    Tempo Temperatura Precipitação Vento Pressão Humidade
    00:00 +25°C° 0 mm 3 m/s 726 mmHg 31%
    01:00 +24°C° 0 mm 2 m/s 725 mmHg 32%
    02:00 +24°C° 0 mm 2 m/s 725 mmHg 32%
    03:00 +24°C° 0 mm 2 m/s 725 mmHg 31%
    04:00 +23°C° 0 mm 2 m/s 725 mmHg 31%
    05:00 +21°C° 0 mm 3 m/s 724 mmHg 30%
    06:00 +22°C° 0 mm 4 m/s 725 mmHg 28%
    07:00 +23°C° 0 mm 5 m/s 725 mmHg 25%
    08:00 +24°C° 0 mm 6 m/s 726 mmHg 22%
    09:00 +26°C° 0 mm 7 m/s 726 mmHg 22%
    10:00 +27°C° 0 mm 8 m/s 726 mmHg 23%
    11:00 +28°C° 0 mm 9 m/s 726 mmHg 23%
    12:00 +28°C° 0 mm 9 m/s 726 mmHg 22%
    13:00 +28°C° 0 mm 10 m/s 726 mmHg 22%
    14:00 +28°C° 0 mm 10 m/s 726 mmHg 21%
    15:00 +27°C° 0 mm 10 m/s 726 mmHg 22%
    16:00 +26°C° 0 mm 10 m/s 726 mmHg 23%
    17:00 +24°C° 0 mm 10 m/s 726 mmHg 24%
    18:00 +24°C° 0 mm 8 m/s 726 mmHg 25%
    19:00 +23°C° 0 mm 7 m/s 727 mmHg 27%
    20:00 +22°C° 0 mm 6 m/s 727 mmHg 29%
    21:00 +21°C° 0 mm 5 m/s 727 mmHg 30%
    22:00 +21°C° 0 mm 5 m/s 728 mmHg 30%
    23:00 +20°C° 0 mm 5 m/s 728 mmHg 31%

    Amanhã, 25 Março, Segunda-feira

    Tempo Temperatura Precipitação Vento Pressão Humidade
    00:00 +20°C° 0 mm 5 m/s 728 mmHg 33%
    01:00 +19°C° 0 mm 5 m/s 728 mmHg 35%
    02:00 +19°C° 0 mm 5 m/s 727 mmHg 37%
    03:00 +18°C° 0 mm 4 m/s 727 mmHg 40%
    04:00 +17°C° 0 mm 4 m/s 727 mmHg 42%
    05:00 +17°C° 0 mm 4 m/s 727 mmHg 44%
    06:00 +16°C° 0 mm 5 m/s 728 mmHg 40%
    07:00 +16°C° 0 mm 6 m/s 728 mmHg 36%
    08:00 +17°C° 0 mm 7 m/s 729 mmHg 32%
    09:00 +18°C° 0 mm 7 m/s 729 mmHg 28%
    10:00 +20°C° 0 mm 7 m/s 729 mmHg 24%
    11:00 +20°C° 0 mm 7 m/s 730 mmHg 20%
    12:00 +21°C° 0 mm 7 m/s 729 mmHg 19%
    13:00 +21°C° 0 mm 8 m/s 729 mmHg 19%
    14:00 +22°C° 0 mm 8 m/s 729 mmHg 18%
    15:00 +21°C° 0 mm 8 m/s 729 mmHg 20%
    16:00 +21°C° 0 mm 8 m/s 729 mmHg 21%
    17:00 +20°C° 0 mm 8 m/s 729 mmHg 23%
    18:00 +18°C° 0 mm 7 m/s 729 mmHg 26%
    19:00 +19°C° 0 mm 6 m/s 730 mmHg 29%
    20:00 +17°C° 0 mm 5 m/s 731 mmHg 32%
    21:00 +17°C° 0 mm 4 m/s 731 mmHg 34%
    22:00 +17°C° 0 mm 3 m/s 731 mmHg 37%
    23:00 +16°C° 0 mm 2 m/s 732 mmHg 39%

    Depois de amanhã, 26 Março, Terça-feira

    Tempo Temperatura Precipitação Vento Pressão Humidade
    00:00 +16°C° 0 mm 2 m/s 732 mmHg 41%
    01:00 +16°C° 0 mm 3 m/s 731 mmHg 43%
    02:00 +14°C° 0 mm 3 m/s 731 mmHg 44%
    03:00 +14°C° 0 mm 3 m/s 732 mmHg 45%
    04:00 +14°C° 0 mm 2 m/s 732 mmHg 46%
    05:00 +14°C° 0 mm 2 m/s 732 mmHg 47%
    06:00 +14°C° 0 mm 3 m/s 732 mmHg 44%
    07:00 +16°C° 0 mm 3 m/s 733 mmHg 42%
    08:00 +17°C° 0 mm 3 m/s 734 mmHg 39%
    09:00 +18°C° 0 mm 3 m/s 734 mmHg 34%
    10:00 +19°C° 0 mm 3 m/s 734 mmHg 30%
    11:00 +21°C° 0 mm 3 m/s 734 mmHg 25%
    12:00 +22°C° 0 mm 3 m/s 734 mmHg 23%
    13:00 +23°C° 0 mm 4 m/s 734 mmHg 20%
    14:00 +25°C° 0 mm 4 m/s 733 mmHg 18%
    15:00 +23°C° 0 mm 4 m/s 733 mmHg 19%
    16:00 +23°C° 0 mm 4 m/s 733 mmHg 20%
    17:00 +23°C° 0 mm 4 m/s 733 mmHg 21%
    18:00 +22°C° 0 mm 3 m/s 734 mmHg 25%
    19:00 +20°C° 0 mm 2 m/s 734 mmHg 29%
    20:00 +19°C° 0 mm 2 m/s 735 mmHg 32%
    21:00 +20°C° 0 mm 1 m/s 735 mmHg 33%
    22:00 +19°C° 0 mm 1 m/s 735 mmHg 34%
    23:00 +19°C° 0 mm 1 m/s 735 mmHg 35%

    27 Março, Quarta-feira

    Tempo Temperatura Precipitação Vento Pressão Humidade
    00:00 +18°C° 0 mm 1 m/s 735 mmHg 35%
    01:00 +18°C° 0 mm 1 m/s 735 mmHg 35%
    02:00 +16°C° 0 mm 1 m/s 735 mmHg 34%
    03:00 +16°C° 0 mm 1 m/s 735 mmHg 34%
    04:00 +16°C° 0 mm 1 m/s 736 mmHg 34%
    05:00 +15°C° 0 mm 1 m/s 736 mmHg 34%
    06:00 +18°C° 0 mm 1 m/s 736 mmHg 31%
    07:00 +19°C° 0 mm 1 m/s 737 mmHg 29%
    08:00 +20°C° 0 mm 1 m/s 738 mmHg 26%
    09:00 +20°C° 0 mm 2 m/s 738 mmHg 25%
    10:00 +21°C° 0 mm 2 m/s 738 mmHg 24%
    11:00 +24°C° 0 mm 2 m/s 738 mmHg 23%
    12:00 +24°C° 0 mm 3 m/s 737 mmHg 22%
    13:00 +25°C° 0 mm 4 m/s 737 mmHg 20%
    14:00 +26°C° 0 mm 4 m/s 736 mmHg 19%
    15:00 +26°C° 0 mm 5 m/s 736 mmHg 20%
    16:00 +25°C° 0 mm 5 m/s 736 mmHg 21%
    17:00 +25°C° 0 mm 5 m/s 736 mmHg 23%
    18:00 +23°C° 0 mm 5 m/s 737 mmHg 25%
    19:00 +22°C° 0 mm 4 m/s 737 mmHg 28%
    20:00 +21°C° 0 mm 3 m/s 737 mmHg 30%
    21:00 +20°C° 0 mm 2 m/s 737 mmHg 30%
    22:00 +20°C° 0 mm 2 m/s 737 mmHg 31%
    23:00 +19°C° 0 mm 2 m/s 737 mmHg 31%

    28 Março, Quinta-feira

    Tempo Temperatura Precipitação Vento Pressão Humidade
    00:00 +20°C° 0 mm 1 m/s 737 mmHg 30%
    01:00 +19°C° 0 mm 1 m/s 736 mmHg 30%
    02:00 +19°C° 0 mm 1 m/s 736 mmHg 30%
    03:00 +18°C° 0 mm 1 m/s 736 mmHg 31%
    04:00 +17°C° 0 mm 2 m/s 736 mmHg 31%
    05:00 +17°C° 0 mm 2 m/s 737 mmHg 32%
    06:00 +18°C° 0 mm 2 m/s 737 mmHg 32%
    07:00 +19°C° 0 mm 2 m/s 737 mmHg 31%
    08:00 +20°C° 0 mm 2 m/s 738 mmHg 31%
    09:00 +21°C° 0 mm 2 m/s 738 mmHg 28%
    10:00 +22°C° 0 mm 3 m/s 738 mmHg 26%
    11:00 +25°C° 0 mm 3 m/s 737 mmHg 23%
    12:00 +25°C° 0 mm 3 m/s 737 mmHg 21%
    13:00 +26°C° 0 mm 3 m/s 736 mmHg 20%
    14:00 +27°C° 0 mm 3 m/s 736 mmHg 18%
    15:00 +26°C° 0 mm 3 m/s 735 mmHg 19%
    16:00 +26°C° 0 mm 3 m/s 735 mmHg 19%
    17:00 +26°C° 0 mm 3 m/s 735 mmHg 20%
    18:00 +25°C° 0 mm 2 m/s 735 mmHg 22%
    19:00 +24°C° 0 mm 1 m/s 735 mmHg 24%
    20:00 +20°C° 0 mm 0 m/s 735 mmHg 26%
    21:00 +20°C° 0 mm 0 m/s 735 mmHg 26%
    22:00 +20°C° 0 mm 0 m/s 734 mmHg 27%
    23:00 +19°C° 0 mm 0 m/s 734 mmHg 27%

    29 Março, Sexta-feira

    Tempo Temperatura Precipitação Vento Pressão Humidade
    00:00 +19°C° 0 mm 0 m/s 734 mmHg 27%
    01:00 +19°C° 0 mm 0 m/s 733 mmHg 27%
    02:00 +20°C° 0 mm 1 m/s 733 mmHg 27%
    03:00 +20°C° 0 mm 1 m/s 733 mmHg 27%
    04:00 +20°C° 0 mm 1 m/s 733 mmHg 27%
    05:00 +20°C° 0 mm 1 m/s 733 mmHg 27%
    06:00 +21°C° 0 mm 1 m/s 733 mmHg 24%
    07:00 +23°C° 0 mm 1 m/s 733 mmHg 20%
    08:00 +25°C° 0 mm 1 m/s 733 mmHg 17%
    09:00 +26°C° 0 mm 1 m/s 733 mmHg 16%
    10:00 +28°C° 0 mm 2 m/s 733 mmHg 14%
    11:00 +29°C° 0 mm 2 m/s 733 mmHg 13%
    12:00 +30°C° 0 mm 3 m/s 732 mmHg 13%
    13:00 +31°C° 0 mm 3 m/s 731 mmHg 14%
    14:00 +32°C° 0 mm 4 m/s 730 mmHg 14%
    15:00 +32°C° 0 mm 4 m/s 730 mmHg 14%
    16:00 +32°C° 0 mm 5 m/s 730 mmHg 14%
    17:00 +32°C° 0 mm 5 m/s 729 mmHg 14%
    18:00 +30°C° 0 mm 5 m/s 729 mmHg 16%
    19:00 +29°C° 0 mm 4 m/s 729 mmHg 17%
    20:00 +28°C° 0 mm 3 m/s 729 mmHg 18%
    21:00 +27°C° 0 mm 3 m/s 729 mmHg 18%
    22:00 +27°C° 0 mm 3 m/s 729 mmHg 17%
    23:00 +27°C° 0 mm 3 m/s 729 mmHg 16%
    Mostrar mais